| time (UTC) | temp F | wind direction | speed MPH | gust MPH | rain 1hr in | rain 24hr in | rain mn in | humidity % | barometer mb |
| 20260506103149 | 40 | 217 | 1.0 | 3.0 | 0.00 | 0.00 | 0.00 | 77 | 1011.8 |
| 20260506102647 | 40 | 226 | 0.0 | 3.0 | 0.00 | 0.00 | 0.00 | 76 | 1011.6 |
| 20260506102144 | 41 | 80 | 1.0 | 2.0 | 0.00 | 0.00 | 0.00 | 72 | 1011.4 |
| 20260506101641 | 41 | 20 | 0.0 | 2.0 | 0.00 | 0.00 | 0.00 | 72 | 1011.5 |
| 20260506101138 | 41 | 73 | 1.0 | 2.0 | 0.00 | 0.00 | 0.00 | 71 | 1011.4 |
| 20260506100637 | 41 | 64 | 2.0 | 3.0 | 0.00 | 0.00 | 0.00 | 70 | 1011.3 |
| 20260506100134 | 42 | 53 | 1.0 | 3.0 | 0.00 | 0.00 | 0.00 | 70 | 1011.7 |
| 20260506095633 | 42 | 57 | 2.0 | 3.0 | 0.00 | 0.00 | 0.00 | 69 | 1011.5 |
| 20260506095129 | 42 | 60 | 1.0 | 3.0 | 0.00 | 0.00 | 0.00 | 69 | 1011.5 |
| 20260506094626 | 41 | 29 | 0.0 | 3.0 | 0.00 | 0.00 | 0.00 | 70 | 1011.6 |
| 20260506094124 | 42 | 13 | 0.0 | 3.0 | 0.00 | 0.00 | 0.00 | 69 | 1011.4 |
| 20260506093622 | 42 | 24 | 0.0 | 3.0 | 0.00 | 0.00 | 0.00 | 68 | 1011.6 |
| 20260506093119 | 42 | 49 | 0.0 | 3.0 | 0.00 | 0.00 | 0.00 | 69 | 1011.8 |
| 20260506092617 | 43 | 119 | 0.0 | 3.0 | 0.00 | 0.00 | 0.00 | 69 | 1012.0 |
| 20260506092114 | 43 | 58 | 0.0 | 2.0 | 0.00 | 0.00 | 0.00 | 67 | 1011.6 |
| 20260506091612 | 43 | 129 | 1.0 | 2.0 | 0.00 | 0.00 | 0.00 | 67 | 1011.5 |
| 20260506091109 | 43 | 89 | 0.0 | 2.0 | 0.00 | 0.00 | 0.00 | 65 | 1011.5 |
| 20260506090607 | 44 | 62 | 2.0 | 4.0 | 0.00 | 0.00 | 0.00 | 65 | 1011.3 |
| 20260506085600 | 44 | 29 | 0.0 | 4.0 | 0.00 | 0.00 | 0.00 | 66 | 1011.5 |
| 20260506085056 | 44 | 15 | 2.0 | 3.0 | 0.00 | 0.00 | 0.00 | 65 | 1011.4 |
| 20260506084553 | 44 | 20 | 2.0 | 5.0 | 0.00 | 0.00 | 0.00 | 66 | 1011.3 |
| 20260506084050 | 44 | 18 | 3.0 | 5.0 | 0.00 | 0.00 | 0.00 | 64 | 1011.2 |
| 20260506083547 | 44 | 40 | 3.0 | 5.0 | 0.00 | 0.00 | 0.00 | 64 | 1011.5 |
| 20260506083044 | 44 | 79 | 1.0 | 5.0 | 0.00 | 0.00 | 0.00 | 65 | 1011.4 |
| 20260506082540 | 44 | 34 | 2.0 | 5.0 | 0.00 | 0.00 | 0.00 | 65 | 1011.3 |
| 20260506082036 | 44 | 14 | 2.0 | 4.0 | 0.00 | 0.00 | 0.00 | 64 | 1011.4 |
| 20260506081535 | 44 | 2 | 2.0 | 5.0 | 0.00 | 0.00 | 0.00 | 64 | 1011.5 |
| 20260506081032 | 44 | 34 | 2.0 | 3.0 | 0.00 | 0.00 | 0.00 | 64 | 1011.4 |
| 20260506080530 | 44 | 349 | 1.0 | 6.0 | 0.00 | 0.00 | 0.00 | 64 | 1011.3 |
| 20260506073513 | 46 | 6 | 2.0 | 5.0 | 0.00 | 0.00 | 0.00 | 59 | 1011.1 |
| 20260506073010 | 46 | 24 | 2.0 | 5.0 | 0.00 | 0.00 | 0.00 | 59 | 1010.8 |
| 20260506072507 | 46 | 14 | 2.0 | 4.0 | 0.00 | 0.00 | 0.00 | 59 | 1010.9 |
| 20260506072005 | 46 | 40 | 1.0 | 4.0 | 0.00 | 0.00 | 0.00 | 59 | 1010.9 |
| 20260506071502 | 46 | 351 | 0.0 | 5.0 | 0.00 | 0.00 | 0.00 | 57 | 1010.8 |
| 20260506070959 | 46 | 340 | 3.0 | 4.0 | 0.00 | 0.00 | 0.00 | 58 | 1010.9 |
| 20260506070456 | 47 | 12 | 4.0 | 5.0 | 0.00 | 0.00 | 0.00 | 57 | 1010.6 |
| 20260506062434 | 48 | 336 | 2.0 | 4.0 | 0.00 | 0.00 | 0.00 | 55 | 1010.5 |
| 20260506061930 | 47 | 15 | 0.0 | 3.0 | 0.00 | 0.00 | 0.00 | 55 | 1010.7 |
| 20260506061426 | 48 | 298 | 0.0 | 3.0 | 0.00 | 0.00 | 0.00 | 55 | 1010.6 |
| 20260506060925 | 48 | 0 | 1.0 | 4.0 | 0.00 | 0.00 | 0.00 | 55 | 1010.3 |
| 20260506060422 | 48 | 321 | 2.0 | 4.0 | 0.00 | 0.00 | 0.00 | 54 | 1010.7 |
| 20260506051354 | 49 | 316 | 3.0 | 5.0 | 0.00 | 0.00 | 0.00 | 58 | 1010.3 |
| 20260506050851 | 49 | 224 | 1.0 | 4.0 | 0.00 | 0.00 | 0.00 | 58 | 1010.4 |
| 20260506050349 | 49 | 148 | 1.0 | 3.0 | 0.00 | 0.00 | 0.00 | 59 | 1010.2 |
| 20260506044839 | 50 | 0 | 3.0 | 5.0 | 0.00 | 0.10 | 0.10 | 57 | 1010.3 |
| 20260506044337 | 50 | 335 | 1.0 | 4.0 | 0.00 | 0.10 | 0.10 | 58 | 1010.3 |
| 20260506043834 | 50 | 338 | 2.0 | 2.0 | 0.00 | 0.10 | 0.10 | 57 | 1010.4 |
| 20260506043331 | 50 | 239 | 1.0 | 2.0 | 0.00 | 0.10 | 0.10 | 58 | 1010.3 |
| 20260506042829 | 49 | 218 | 0.0 | 2.0 | 0.00 | 0.10 | 0.10 | 61 | 1010.5 |
| 20260506042328 | 49 | 32 | 0.0 | 1.0 | 0.00 | 0.10 | 0.10 | 64 | 1010.4 |
| 20260506041827 | 50 | 57 | 0.0 | 1.0 | 0.00 | 0.10 | 0.10 | 63 | 1010.1 |
| 20260506041323 | 50 | 124 | 2.0 | 2.0 | 0.00 | 0.10 | 0.10 | 59 | 1010.2 |
| 20260506040820 | 50 | 151 | 1.0 | 2.0 | 0.00 | 0.10 | 0.10 | 57 | 1010.7 |
| 20260506040318 | 50 | 147 | 0.0 | 2.0 | 0.00 | 0.10 | 0.10 | 56 | 1010.5 |
| 20260506035814 | 50 | 151 | 0.0 | 2.0 | 0.00 | 0.10 | 0.10 | 56 | 1010.6 |
| 20260506035311 | 50 | 226 | 1.0 | 2.0 | 0.00 | 0.10 | 0.10 | 54 | 1010.9 |
| 20260506034809 | 50 | 194 | 0.0 | 2.0 | 0.00 | 0.10 | 0.10 | 58 | 1010.3 |
| 20260506034306 | 50 | 155 | 2.0 | 2.0 | 0.00 | 0.10 | 0.10 | 57 | 1010.4 |
| 20260506033802 | 50 | 196 | 0.0 | 2.0 | 0.00 | 0.10 | 0.10 | 57 | 1010.5 |
| 20260506033259 | 50 | 184 | 0.0 | 2.0 | 0.00 | 0.10 | 0.10 | 57 | 1010.1 |
| 20260506032756 | 50 | 244 | 2.0 | 3.0 | 0.00 | 0.10 | 0.10 | 55 | 1010.5 |
| 20260506032253 | 50 | 242 | 0.0 | 2.0 | 0.00 | 0.10 | 0.10 | 57 | 1010.4 |
| 20260506031749 | 50 | 172 | 0.0 | 2.0 | 0.00 | 0.10 | 0.10 | 56 | 1010.3 |
| 20260506031247 | 50 | 208 | 1.0 | 2.0 | 0.00 | 0.10 | 0.10 | 57 | 1010.0 |
| 20260506030745 | 50 | 174 | 1.0 | 2.0 | 0.00 | 0.10 | 0.10 | 59 | 1010.1 |
| 20260506030243 | 50 | 152 | 1.0 | 2.0 | 0.00 | 0.10 | 0.10 | 60 | 1010.1 |
| 20260506025739 | 50 | 151 | 1.0 | 2.0 | 0.00 | 0.10 | 0.10 | 61 | 1010.0 |
| 20260506025236 | 50 | 162 | 1.0 | 3.0 | 0.00 | 0.10 | 0.10 | 60 | 1010.0 |
| 20260506024732 | 50 | 107 | 0.0 | 1.0 | 0.00 | 0.10 | 0.10 | 59 | 1009.9 |
| 20260506024229 | 50 | 108 | 0.0 | 2.0 | 0.00 | 0.10 | 0.10 | 60 | 1009.8 |
| 20260506023720 | 51 | 51 | 0.0 | 2.0 | 0.00 | 0.10 | 0.10 | 57 | 1010.0 |
| 20260506023217 | 51 | 158 | 1.0 | 2.0 | 0.00 | 0.10 | 0.10 | 55 | 1010.1 |
| 20260506022714 | 51 | 166 | 0.0 | 2.0 | 0.00 | 0.10 | 0.10 | 53 | 1009.8 |
| 20260506022212 | 51 | 194 | 0.0 | 1.0 | 0.00 | 0.10 | 0.10 | 53 | 1009.8 |
| 20260506021709 | 51 | 193 | 0.0 | 1.0 | 0.00 | 0.10 | 0.10 | 53 | 1009.9 |
| 20260506021206 | 51 | 116 | 0.0 | 1.0 | 0.00 | 0.10 | 0.10 | 52 | 1009.6 |
| 20260506020703 | 51 | 147 | 0.0 | 2.0 | 0.00 | 0.10 | 0.10 | 52 | 1009.8 |
| 20260506020201 | 51 | 158 | 0.0 | 1.0 | 0.00 | 0.10 | 0.10 | 54 | 1009.7 |
| 20260506015658 | 51 | 164 | 0.0 | 2.0 | 0.00 | 0.10 | 0.10 | 53 | 1009.7 |
| 20260506015155 | 51 | 157 | 0.0 | 2.0 | 0.00 | 0.10 | 0.10 | 53 | 1009.6 |
| 20260506014652 | 51 | 147 | 0.0 | 1.0 | 0.00 | 0.10 | 0.10 | 52 | 1009.5 |
| 20260506014148 | 51 | 135 | 0.0 | 1.0 | 0.00 | 0.10 | 0.10 | 51 | 1009.2 |
| 20260506013646 | 52 | 133 | 0.0 | 2.0 | 0.00 | 0.10 | 0.10 | 51 | 1009.3 |
| 20260506013143 | 52 | 321 | 0.0 | 1.0 | 0.00 | 0.10 | 0.10 | 51 | 1009.2 |
| 20260506012639 | 52 | 154 | 0.0 | 2.0 | 0.00 | 0.10 | 0.10 | 51 | 1009.0 |
| 20260506012136 | 52 | 129 | 0.0 | 1.0 | 0.00 | 0.10 | 0.10 | 49 | 1009.0 |
| 20260506011634 | 52 | 205 | 0.0 | 2.0 | 0.00 | 0.10 | 0.10 | 48 | 1008.9 |
| 20260506011130 | 52 | 240 | 0.0 | 3.0 | 0.00 | 0.10 | 0.10 | 46 | 1008.9 |
| 20260506010628 | 52 | 254 | 0.0 | 2.0 | 0.00 | 0.10 | 0.10 | 48 | 1009.1 |
| 20260506010125 | 52 | 118 | 0.0 | 2.0 | 0.00 | 0.10 | 0.10 | 50 | 1009.0 |
| 20260506005622 | 52 | 113 | 0.0 | 1.0 | 0.00 | 0.10 | 0.10 | 49 | 1009.1 |
| 20260506005118 | 52 | 312 | 1.0 | 3.0 | 0.00 | 0.10 | 0.10 | 47 | 1008.7 |
| 20260506004615 | 53 | 269 | 0.0 | 2.0 | 0.00 | 0.10 | 0.10 | 47 | 1008.8 |
| 20260506004112 | 53 | 26 | 0.0 | 3.0 | 0.00 | 0.10 | 0.10 | 46 | 1008.8 |
| 20260506003609 | 53 | 347 | 3.0 | 3.0 | 0.00 | 0.10 | 0.10 | 44 | 1009.0 |
| 20260506003105 | 53 | 273 | 3.0 | 5.0 | 0.00 | 0.10 | 0.10 | 44 | 1008.7 |
| 20260506002601 | 53 | 333 | 3.0 | 7.0 | 0.00 | 0.10 | 0.10 | 43 | 1008.6 |
| 20260506002057 | 53 | 325 | 2.0 | 7.0 | 0.00 | 0.10 | 0.10 | 43 | 1008.9 |
| 20260506001553 | 53 | 312 | 2.0 | 4.0 | 0.00 | 0.10 | 0.10 | 45 | 1008.6 |
| 20260506001050 | 53 | 262 | 2.0 | 4.0 | 0.00 | 0.10 | 0.10 | 47 | 1008.6 |
| 20260506000548 | 53 | 342 | 1.0 | 3.0 | 0.00 | 0.10 | 0.10 | 47 | 1008.4 |
| 20260506000045 | 53 | 30 | 1.0 | 3.0 | 0.00 | 0.10 | 0.10 | 46 | 1008.5 |
| 20260505235543 | 54 | 303 | 3.0 | 5.0 | 0.00 | 0.10 | 0.10 | 44 | 1008.4 |
| 20260505235040 | 54 | 335 | 2.0 | 5.0 | 0.00 | 0.10 | 0.10 | 43 | 1008.5 |
| 20260505234537 | 54 | 311 | 2.0 | 3.0 | 0.00 | 0.10 | 0.10 | 45 | 1008.5 |
| 20260505234033 | 55 | 237 | 0.0 | 6.0 | 0.00 | 0.10 | 0.10 | 42 | 1008.6 |
| 20260505233531 | 54 | 262 | 2.0 | 4.0 | 0.00 | 0.10 | 0.10 | 43 | 1008.6 |
| 20260505233028 | 54 | 323 | 2.0 | 3.0 | 0.00 | 0.10 | 0.10 | 45 | 1008.8 |
| 20260505232526 | 55 | 318 | 2.0 | 5.0 | 0.00 | 0.10 | 0.10 | 41 | 1008.6 |
| 20260505232023 | 55 | 313 | 2.0 | 7.0 | 0.00 | 0.10 | 0.10 | 39 | 1008.8 |
| 20260505231520 | 55 | 278 | 2.0 | 7.0 | 0.00 | 0.10 | 0.10 | 40 | 1008.7 |
| 20260505231019 | 55 | 299 | 4.0 | 10.0 | 0.00 | 0.10 | 0.10 | 39 | 1008.7 |
| 20260505230516 | 55 | 263 | 2.0 | 9.0 | 0.00 | 0.10 | 0.10 | 40 | 1008.8 |
| 20260505230012 | 55 | 293 | 2.0 | 7.0 | 0.00 | 0.10 | 0.10 | 39 | 1008.7 |
| 20260505225509 | 55 | 277 | 3.0 | 7.0 | 0.00 | 0.10 | 0.10 | 40 | 1008.8 |
| 20260505225005 | 55 | 223 | 2.0 | 9.0 | 0.00 | 0.10 | 0.10 | 38 | 1008.9 |
| 20260505224502 | 55 | 298 | 3.0 | 5.0 | 0.00 | 0.10 | 0.10 | 39 | 1008.9 |
| 20260505223959 | 55 | 111 | 1.0 | 6.0 | 0.00 | 0.10 | 0.10 | 40 | 1008.9 |
| 20260505223456 | 55 | 291 | 5.0 | 6.0 | 0.00 | 0.10 | 0.10 | 37 | 1008.9 |
| 20260505222953 | 55 | 329 | 3.0 | 7.0 | 0.00 | 0.10 | 0.10 | 39 | 1009.1 |
| 20260505222449 | 55 | 320 | 4.0 | 9.0 | 0.00 | 0.10 | 0.10 | 40 | 1008.9 |
| 20260505221944 | 55 | 286 | 5.0 | 8.0 | 0.00 | 0.10 | 0.10 | 40 | 1009.1 |
| 20260505221442 | 55 | 262 | 4.0 | 8.0 | 0.00 | 0.10 | 0.10 | 39 | 1008.8 |
| 20260505220939 | 55 | 343 | 6.0 | 11.0 | 0.00 | 0.10 | 0.10 | 41 | 1008.7 |
| 20260505220436 | 56 | 272 | 2.0 | 3.0 | 0.00 | 0.10 | 0.10 | 38 | 1008.8 |
| 20260505215934 | 55 | 278 | 2.0 | 8.0 | 0.00 | 0.10 | 0.10 | 38 | 1009.0 |
| 20260505215432 | 55 | 210 | 1.0 | 8.0 | 0.00 | 0.10 | 0.10 | 39 | 1009.0 |
| 20260505214929 | 55 | 334 | 3.0 | 10.0 | 0.00 | 0.10 | 0.10 | 37 | 1009.0 |
| 20260505214427 | 55 | 309 | 1.0 | 4.0 | 0.00 | 0.10 | 0.10 | 40 | 1009.1 |
| 20260505213924 | 55 | 284 | 4.0 | 8.0 | 0.00 | 0.10 | 0.10 | 38 | 1009.2 |
| 20260505213422 | 55 | 269 | 5.0 | 8.0 | 0.00 | 0.10 | 0.10 | 38 | 1009.2 |
| 20260505212917 | 56 | 273 | 7.0 | 12.0 | 0.00 | 0.10 | 0.10 | 39 | 1009.3 |
| 20260505212415 | 55 | 232 | 5.0 | 7.0 | 0.00 | 0.10 | 0.10 | 41 | 1009.2 |
| 20260505211911 | 55 | 257 | 3.0 | 6.0 | 0.00 | 0.10 | 0.10 | 42 | 1009.2 |
| 20260505211409 | 55 | 237 | 2.0 | 6.0 | 0.00 | 0.10 | 0.10 | 40 | 1009.2 |
| 20260505210904 | 55 | 259 | 3.0 | 4.0 | 0.00 | 0.10 | 0.10 | 41 | 1008.9 |
| 20260505210402 | 55 | 227 | 4.0 | 10.0 | 0.00 | 0.10 | 0.10 | 40 | 1009.2 |
| 20260505205859 | 55 | 281 | 3.0 | 5.0 | 0.00 | 0.10 | 0.10 | 38 | 1009.2 |
| 20260505205357 | 55 | 187 | 2.0 | 4.0 | 0.00 | 0.10 | 0.10 | 41 | 1009.3 |
| 20260505204854 | 55 | 338 | 1.0 | 4.0 | 0.00 | 0.10 | 0.10 | 40 | 1009.4 |
| 20260505204351 | 55 | 261 | 1.0 | 4.0 | 0.00 | 0.10 | 0.10 | 40 | 1009.3 |
| 20260505203848 | 55 | 243 | 3.0 | 6.0 | 0.00 | 0.10 | 0.10 | 38 | 1009.5 |
| 20260505203345 | 55 | 341 | 3.0 | 7.0 | 0.00 | 0.10 | 0.10 | 40 | 1009.7 |
| 20260505202841 | 55 | 264 | 4.0 | 7.0 | 0.00 | 0.10 | 0.10 | 42 | 1009.5 |
| 20260505202337 | 55 | 268 | 5.0 | 7.0 | 0.00 | 0.10 | 0.10 | 39 | 1009.8 |
| 20260505201834 | 55 | 267 | 4.0 | 9.0 | 0.00 | 0.10 | 0.10 | 42 | 1009.5 |
| 20260505201332 | 55 | 277 | 5.0 | 8.0 | 0.00 | 0.10 | 0.10 | 41 | 1009.6 |
| 20260505200830 | 55 | 266 | 3.0 | 7.0 | 0.00 | 0.10 | 0.10 | 44 | 1009.6 |
| 20260505200326 | 55 | 278 | 3.0 | 10.0 | 0.00 | 0.10 | 0.10 | 42 | 1009.5 |
| 20260505195822 | 55 | 257 | 3.0 | 8.0 | 0.00 | 0.10 | 0.10 | 44 | 1009.4 |
| 20260505195319 | 55 | 277 | 5.0 | 11.0 | 0.00 | 0.10 | 0.10 | 42 | 1009.6 |
| 20260505194816 | 55 | 282 | 3.0 | 8.0 | 0.00 | 0.10 | 0.10 | 42 | 1009.4 |
| 20260505194314 | 55 | 41 | 0.0 | 10.0 | 0.00 | 0.10 | 0.10 | 44 | 1009.4 |
| 20260505193809 | 55 | 255 | 3.0 | 9.0 | 0.00 | 0.10 | 0.10 | 42 | 1009.4 |
| 20260505193307 | 55 | 278 | 5.0 | 9.0 | 0.00 | 0.10 | 0.10 | 42 | 1009.6 |
| 20260505192805 | 55 | 280 | 3.0 | 6.0 | 0.00 | 0.10 | 0.10 | 43 | 1009.6 |
| 20260505192305 | 56 | 272 | 5.0 | 7.0 | 0.00 | 0.10 | 0.10 | 43 | 1009.4 |
| 20260505191800 | 56 | 278 | 5.0 | 10.0 | 0.00 | 0.10 | 0.10 | 42 | 1009.5 |
| 20260505191258 | 56 | 241 | 6.0 | 10.0 | 0.00 | 0.10 | 0.10 | 42 | 1009.7 |
| 20260505190754 | 56 | 294 | 6.0 | 9.0 | 0.00 | 0.10 | 0.10 | 40 | 1009.7 |
| 20260505190250 | 56 | 258 | 6.0 | 9.0 | 0.00 | 0.10 | 0.10 | 39 | 1009.7 |
| 20260505185746 | 57 | 266 | 7.0 | 10.0 | 0.00 | 0.10 | 0.10 | 41 | 1009.5 |
| 20260505185243 | 57 | 273 | 5.0 | 6.0 | 0.00 | 0.10 | 0.10 | 40 | 1009.8 |
| 20260505184739 | 57 | 236 | 0.0 | 6.0 | 0.00 | 0.10 | 0.10 | 42 | 1009.4 |
| 20260505184236 | 57 | 246 | 3.0 | 4.0 | 0.00 | 0.10 | 0.10 | 43 | 1009.7 |
| 20260505183733 | 57 | 265 | 3.0 | 10.0 | 0.00 | 0.10 | 0.10 | 41 | 1009.8 |
| 20260505183230 | 57 | 263 | 1.0 | 5.0 | 0.00 | 0.10 | 0.10 | 45 | 1009.6 |
| 20260505182726 | 57 | 253 | 4.0 | 8.0 | 0.00 | 0.10 | 0.10 | 49 | 1009.5 |
| 20260505182224 | 57 | 233 | 5.0 | 8.0 | 0.00 | 0.10 | 0.10 | 46 | 1009.6 |
| 20260505181720 | 57 | 271 | 4.0 | 6.0 | 0.00 | 0.10 | 0.10 | 51 | 1009.8 |
| 20260505181218 | 56 | 263 | 3.0 | 6.0 | 0.00 | 0.10 | 0.10 | 51 | 1009.6 |
| 20260505180714 | 56 | 243 | 3.0 | 6.0 | 0.00 | 0.10 | 0.10 | 53 | 1009.5 |
| 20260505180211 | 56 | 178 | 0.0 | 5.0 | 0.00 | 0.10 | 0.10 | 56 | 1009.7 |
| 20260505175707 | 55 | 246 | 3.0 | 6.0 | 0.00 | 0.10 | 0.10 | 54 | 1009.5 |
| 20260505175203 | 55 | 228 | 6.0 | 6.0 | 0.00 | 0.10 | 0.10 | 53 | 1009.6 |
| 20260505174700 | 55 | 219 | 2.0 | 9.0 | 0.00 | 0.10 | 0.10 | 54 | 1009.6 |
| 20260505174156 | 55 | 235 | 2.0 | 8.0 | 0.00 | 0.10 | 0.10 | 53 | 1009.4 |
| 20260505173653 | 55 | 255 | 3.0 | 5.0 | 0.00 | 0.10 | 0.10 | 52 | 1009.4 |
| 20260505173150 | 55 | 283 | 2.0 | 7.0 | 0.00 | 0.10 | 0.10 | 54 | 1009.5 |
| 20260505172647 | 55 | 276 | 2.0 | 3.0 | 0.00 | 0.10 | 0.10 | 52 | 1009.6 |
| 20260505172144 | 55 | 241 | 2.0 | 6.0 | 0.00 | 0.10 | 0.10 | 52 | 1009.4 |
| 20260505171643 | 54 | 300 | 3.0 | 10.0 | 0.00 | 0.10 | 0.10 | 51 | 1009.5 |
| 20260505171141 | 55 | 282 | 4.0 | 8.0 | 0.00 | 0.10 | 0.10 | 51 | 1009.5 |
| 20260505170638 | 55 | 206 | 0.0 | 5.0 | 0.00 | 0.10 | 0.10 | 55 | 1009.2 |
| 20260505170134 | 55 | 274 | 2.0 | 7.0 | 0.00 | 0.10 | 0.10 | 54 | 1009.3 |
| 20260505165629 | 55 | 316 | 3.0 | 7.0 | 0.00 | 0.10 | 0.10 | 53 | 1009.3 |
| 20260505165126 | 55 | 304 | 3.0 | 12.0 | 0.00 | 0.10 | 0.10 | 52 | 1009.4 |
| 20260505164621 | 55 | 269 | 3.0 | 8.0 | 0.00 | 0.10 | 0.10 | 52 | 1009.4 |
| 20260505164119 | 56 | 234 | 2.0 | 7.0 | 0.00 | 0.10 | 0.10 | 56 | 1009.2 |
| 20260505163617 | 55 | 329 | 2.0 | 6.0 | 0.00 | 0.10 | 0.10 | 51 | 1009.4 |
| 20260505163114 | 55 | 278 | 3.0 | 7.0 | 0.00 | 0.10 | 0.10 | 54 | 1009.5 |
| 20260505162612 | 56 | 284 | 2.0 | 8.0 | 0.00 | 0.10 | 0.10 | 54 | 1009.3 |
| 20260505162109 | 56 | 326 | 4.0 | 7.0 | 0.00 | 0.10 | 0.10 | 52 | 1009.2 |
| 20260505161606 | 54 | 265 | 5.0 | 9.0 | 0.00 | 0.09 | 0.09 | 57 | 1009.3 |
| 20260505161103 | 54 | 344 | 3.0 | 9.0 | 0.00 | 0.09 | 0.09 | 57 | 1009.4 |
| 20260505160601 | 54 | 263 | 3.0 | 7.0 | 0.00 | 0.09 | 0.09 | 57 | 1008.9 |
| 20260505153038 | 52 | 330 | 1.0 | 3.0 | 0.00 | 0.09 | 0.09 | 67 | 1009.0 |
| 20260505152534 | 52 | 269 | 3.0 | 4.0 | 0.00 | 0.09 | 0.09 | 70 | 1009.0 |
| 20260505152030 | 51 | 231 | 0.0 | 3.0 | 0.00 | 0.09 | 0.09 | 71 | 1009.0 |
| 20260505151530 | 51 | 21 | 3.0 | 5.0 | 0.00 | 0.09 | 0.09 | 68 | 1008.7 |
| 20260505151029 | 51 | 329 | 0.0 | 4.0 | 0.00 | 0.09 | 0.09 | 75 | 1009.1 |
| 20260505150525 | 51 | 207 | 0.0 | 3.0 | 0.00 | 0.09 | 0.09 | 77 | 1009.3 |
| 20260505140450 | 45 | 286 | 0.0 | 4.0 | 0.00 | 0.09 | 0.09 | 92 | 1009.6 |
| 20260505124903 | 45 | 345 | 4.0 | 7.0 | 0.02 | 0.05 | 0.05 | 85 | 1009.1 |
| 20260505124401 | 45 | 353 | 7.0 | 7.0 | 0.07 | 0.05 | 0.05 | 84 | 1008.9 |
| 20260505123856 | 45 | 336 | 6.0 | 8.0 | 0.05 | 0.04 | 0.04 | 81 | 1008.8 |
| 20260505123353 | 46 | 331 | 2.0 | 10.0 | 0.12 | 0.04 | 0.04 | 79 | 1008.7 |
| 20260505122849 | 46 | 331 | 5.0 | 10.0 | 0.14 | 0.03 | 0.03 | 78 | 1008.8 |
| 20260505122347 | 47 | 49 | 3.0 | 9.0 | 0.09 | 0.02 | 0.02 | 76 | 1008.9 |
| 20260505121843 | 48 | 340 | 9.0 | 11.0 | 0.02 | 0.00 | 0.00 | 71 | 1009.0 |
| 20260505121340 | 50 | 324 | 3.0 | 9.0 | 0.00 | 0.00 | 0.00 | 66 | 1009.1 |
| 20260505120836 | 50 | 306 | 3.0 | 9.0 | 0.00 | 0.00 | 0.00 | 63 | 1009.0 |
| 20260505120332 | 50 | 303 | 3.0 | 9.0 | 0.00 | 0.00 | 0.00 | 65 | 1009.0 |
| 20260505115831 | 50 | 335 | 0.0 | 3.0 | 0.00 | 0.00 | 0.00 | 68 | 1008.9 |
| 20260505115329 | 50 | 344 | 1.0 | 5.0 | 0.00 | 0.00 | 0.00 | 66 | 1008.4 |
| 20260505114827 | 51 | 322 | 2.0 | 5.0 | 0.00 | 0.00 | 0.00 | 64 | 1008.0 |
| 20260505114323 | 51 | 356 | 3.0 | 8.0 | 0.00 | 0.00 | 0.00 | 63 | 1007.9 |
| 20260505113819 | 51 | 329 | 8.0 | 10.0 | 0.00 | 0.00 | 0.00 | 61 | 1007.7 |
| 20260505113316 | 51 | 277 | 1.0 | 5.0 | 0.00 | 0.00 | 0.00 | 66 | 1007.5 |
| 20260505112811 | 51 | 1 | 3.0 | 8.0 | 0.00 | 0.00 | 0.00 | 64 | 1007.2 |
| 20260505112309 | 51 | 354 | 3.0 | 6.0 | 0.00 | 0.00 | 0.00 | 62 | 1007.3 |
| 20260505111804 | 51 | 339 | 2.0 | 6.0 | 0.00 | 0.00 | 0.00 | 63 | 1007.2 |
| 20260505111300 | 51 | 311 | 2.0 | 5.0 | 0.00 | 0.00 | 0.00 | 64 | 1006.9 |
| 20260505110756 | 51 | 292 | 1.0 | 6.0 | 0.00 | 0.00 | 0.00 | 64 | 1006.6 |
| 20260505110254 | 51 | 352 | 3.0 | 5.0 | 0.00 | 0.00 | 0.00 | 66 | 1006.6 |